Résultats

Ride & Trail In Ocre : Vtt 28Km. Édition 2018.

0 Km
29/09/2018 à 14:30:00 - Gargas (84)
33 arrivant(e)s.





Place▲ Temps Dossard Nom Prenom Categ #Categ Sexe #Sexe Club Vit Moy Diplôme Partager
1 01:22:10 28 DEMANGEON KILLIAN SEM 1 M 1 MISTRAL ADVENTURA 20.45
2 01:24:43 100 CHAMBEYRON LUUK SEM 2 M 2 MISTRAL ADVENTURA 19.83
3 01:24:45 86 ROSTANG ANTOINE JUM 1 M 3 CV PERNES 19.82
4 01:28:29 206 BAGNON ESTEBAN JUM 2 M 4 AIX VTT 18.99
5 01:29:32 205 MUNIER CHARLES SEM 3 M 5 ISC 18.76
6 01:30:20 25 CHAMBEYRON THOMAS JUM 3 M 6 MISTRAL ADVENTURA 18.60
7 01:36:28 208 ROBERT SYLVAIN SEM 4 M 7 VC ECHALLONS 17.42
8 01:36:34 50 LEDUC PHILIPPE M40 1 M 8 TEAM MADEWIS PERNES 17.40
9 01:37:11 207 KUNTZ VALENTIN JUM 4 M 9 TEAM VTT VENELLES 17.29
10 01:39:47 19 BEN-LOULOU GERALD M40 2 M 10 VELOROC CAVAILLON 16.84
11 01:41:03 40 GAMBUS CHARLY SEM 5 M 11 VELOROC 16.63
12 01:41:31 109 DUCOL GILLES M40 3 M 12 LA MOTTE SERVOLLEX CYCLISME 16.55
13 01:44:25 27 DE-BOISSESON JAUFRE SEM 6 M 13 HGGREENBIKE 16.09
14 01:47:29 24 CATEAU JEAN-MICHEL M40 4 M 14 VAUCLUSE AVENTURE EVASION. 15.63
15 01:47:57 18 BENARD VINCENT SEM 7 M 15 15.56
16 01:48:36 20 BLANES GUILLAUME SEM 8 M 16 BARAGNAS RAID TEAM 15.47
17 01:49:28 17 PONCET STEPHANE M40 5 M 17 VELOROC CAVAILLON 15.35
18 01:50:41 204 N:Anonyme 204 P:Anonyme 204 M40 6 M 18 15.18
19 01:51:34 74 ROUX PASCAL M40 7 M 19 ISTRES SPORT CYCLISME 15.06
20 01:52:14 76 BONNAURE CLEMENT M40 8 M 20 VTT LUBERON 14.97
21 01:53:51 23 BRAVAIS SEVERIN M40 9 M 21 14.76
22 01:55:39 54 LEONETTI MATHIEU SEM 9 M 22 CV PERNES 14.53
23 01:55:58 32 GALLICE VINCENT M40 10 M 23 CVPERNES 14.49
24 01:56:01 120 DUPRET JEROME M40 11 M 24 VTT LUBERON 14.48
25 01:58:06 75 TARDIEU FABIEN SEM 10 M 25 CSLG 07 14.23
26 01:58:06 77 CID FRANCK M40 12 M 26 LEO LAGRANGE MONTBRUN 14.23
27 02:01:18 29 DONNAT OLIVIER SEM 11 M 27 13.85
28 02:02:52 49 GOUIN JEAN-CHARLES SEM 12 M 28 CFCSP ET CV PERNES 13.67
29 02:08:03 62 PONTIER JEAN-MARC M40 13 M 29 13.12
30 02:20:53 80 FOLCHER LAURENT M40 14 M 30 11.92
31 02:21:04 83 MORAN-MANZANO VINCENT M40 15 M 31 11.91
32 02:25:53 113 N:Anonyme 113 P:Anonyme 113 M40 16 M 32 11.52
33 02:26:53 59 MASSARI BASTIEN SEM 13 M 33 11.44